sat.trackr.live / text

‹ back to catalog

STARLINK-30579

NORAD 58061 · 2023-158L

PAYLOAD ACTIVE UNKNOWN

§ Identity

Operator
Country
US
Launch date
2023-10-13
Launch site
AFETR
Launch vehicle
Mass (kg)
RCS (m²)

Purposes: comms

External: N2YO · Heavens-Above · Gunter

§ Orbital elements

Epoch: 2026-09-20T12:39:44.029152Z

Period
94.27 min
Inclination
43.0047°
Eccentricity
0.0001404
Mean motion
15.27571929 rev/d
Perigee alt
482.1 km
Apogee alt
484.0 km
Semi-major
6,861.2 km
B*
-8.7887e-6
RAAN
340.9065°
Arg perigee
259.9748°
Mean anomaly
100.0946°
Rev number
16,366

§ Raw data

STARLINK-305791 58061U 23158L   26263.52759293 -.00000504  00000+0 -87887-5 0  99932 58061  43.0047 340.9065 0001404 259.9748 100.0946 15.27571929163660

JSON: /api/v1/satellites/58061 · /tle

For live sub-satellite position, see the globe view (requires WebGL).

§ Visibility from observer

Set your observer location to see the next 7 days of passes ≥ 10°. The values pass through the URL so the page stays shareable.

No JS? Fill the form by hand. The geolocation button needs JavaScript.